Weather in Volgograd

Russia / Volgograd Oblast     48˚42′25″N   44˚31′00″E
temp.,
°C
wind,
m/s
gust,
m/s
humid.,
%
clouds,
%
prec.,
mm/h
press.,
hPa
HPBL,
m
2 december, wed
wed201:00−4˚e71156100 0.0 1036579
04:00−4˚e7105998 0.0 1036539
07:00−5˚e6106577 0.0 1036470
10:00−6˚e696538 0.0 1037432
13:00−4˚e58550 0.0 1036456
16:00−3˚e68500 0.0 1035474
19:00−4˚e69510 0.0 1036413
22:00−6˚e59520 0.0 1037378
3 december, thu
thu301:00−6˚e58550 0.0 1037348
04:00−7˚e58620 0.0 1038307
07:00−8˚e58680 0.0 1037289
10:00−8˚e58680 0.0 1038310
13:00−5˚e57540 0.0 1037396
16:00−4˚e58480 0.0 1036444
19:00−5˚e69502 0.0 1036408
22:00−6˚ese695420 0.0 1036361
4 december, fri
fri401:00−6˚ese595785 0.0 1036334
04:00−7˚e595791 0.0 1036318
07:00−7˚e595789 0.0 1036327
10:00−7˚e696084 0.0 1037338
13:00−4˚ese585012 0.0 1036440
16:00−3˚e69466 0.0 1036512
19:00−4˚e610511 0.0 1036458
22:00−5˚e6105412 0.0 1037398
5 december, sat
sat501:00−6˚e59551 0.0 1037352
04:00−7˚e59572 0.0 1037317
07:00−8˚e59620 0.0 1037300
10:00−8˚e58620 0.0 1038309
13:00−5˚e58500 0.0 1038399
16:00−4˚ene58450 0.0 1037435
19:00−5˚ene610500 0.0 1037369
22:00−6˚e59540 0.0 1038352
6 december, sun
sun601:00−7˚e58580 0.0 1038313
04:00−8˚ene58660 0.0 1039294
07:00−9˚ene58700 0.0 1039286
10:00−9˚ene58650 0.0 1039305
13:00−6˚ene58500 0.0 1039398
16:00−5˚e58460 0.0 1038452
19:00−6˚e610500 0.0 1039387
22:00−7˚e59530 0.0 1039343